STARLINK-31180, 58732

Orbit data source: Space-Track

STARLINK-31180, 58732 is a payload satellite owned by SpaceX/Seattle (US) in LEO that was launched on Sun, 07 Jan 2024 UTC via an FALCON 9 launch vehicle from the Air Force Eastern Test Range (AFETR). Payload-class satellites include a variety of spacecraft equipped with specific instruments for various scientific and technological missions. These include communications satellites like Starlink; space stations such as the ISS; scientific satellites like the Hubble; Earth observation satellites from companies like Planet Labs, Umbra, and HawkEye 360; GPS; miniature CubeSats for education and research; and military/defense satellites.

Loading next visibility...
Identifier
58732, 2024-005E
Orbit
LEO
Country
Flag of USUS
Related business
Manufacturer
SpaceX/Seattle
Mission
Operational Commercial Communications
Bus & Motor
STARLINK V2M, Unknown motor
Mass
730 kg wet, ~700 kg dry
Launch date (UTC)
2024-01-07 (2 years ago)
Launch vehicle
FALCON 9
Launch site
Air Force Eastern Test Range (AFETR)
Object type
Payload
Rocket body
Debris
Shape & HBR
Box + 2 Pan, 17.7 m
Radar Cross Section
33.884 m², Large (>1 m²)

Expand to show TLE details & history
Last TLE update: 2 days ago

TLE from 2 days ago
0 STARLINK-31180
1 58732U 24005E   26171.21324725  .00000934  00000-0  43456-4 0  9991
2 58732  43.0010   0.7340 0001708 269.8230  90.2426 15.27578413136113
Epoch: 2026-06-20T05:07Z
TLE epoch observation values (Epoch: 2026-06-20T05:07:04.562Z)
Latitude
-0.00001°
Longitude
15.53388°
Altitude
482.835 km
Speed
7.626 km/s
True Right ascension
00h 02m 56s
True Declination
0° 00' 00"
Sunlit
Object was in daylight at epoch
Visualization orbit readout
Latitude
Unknown
Longitude
Unknown
Altitude
Unknown
Speed
Unknown
Apparent Right ascension
Unknown
Apparent Declination
Unknown
Sunlit
N/A
Visualization observer readout
Local Sidereal Time
21:25:15
Azimuth
Unknown
Elevation
Unknown
Doppler factor
Unknown
Orbital elements
Apogee altitude
486.171 km
Perigee altitude
483.827 km
Semi-major axis
6,863.136 km
Eccentricity
0.00017
Inclination
43.001°
RAAN
0.734°
Arg. of periapsis
269.823°
True anomaly
90.26217°
Mean anomaly
90.2426°
Eccentric anomaly
90.25239°
Mean motion
3.81733 °/min
Orbital period
94.31 mins
BSTAR
0.000043456
Loading maneuver chart data...
Computing Atmospheric mass density...
Loading historical data...
Loading historical data...
Loading historical data...
Loading historical data...
Loading historical data...
Loading historical data...
Loading historical data...

Documentation

Showing up to 5 results
|